EW9485 Weather Reports


Display with metric or nautical units.
time (UTC)temp
F
wind
direction
speed
MPH
gust
MPH
rain 1hr
in
rain 24hr
in
rain mn
in
humidity
%
barometer
mb
20260505201048 80 159 8.0 15.0 0.00 0.00 0.00 53 1015.3
20260505200545 81 169 8.0 15.0 0.00 0.00 0.00 52 1015.4
20260505200053 81 171 7.0 16.0 0.00 0.00 0.00 53 1015.2
20260505195548 82 208 8.0 16.0 0.00 0.00 0.00 52 1015.4
20260505195051 82 166 6.0 16.0 0.00 0.00 0.00 52 1015.4
20260505194555 82 160 8.0 16.0 0.00 0.00 0.00 51 1015.3
20260505194045 82 161 7.0 15.0 0.00 0.00 0.00 51 1015.4
20260505193548 82 181 6.0 15.0 0.00 0.00 0.00 52 1015.5
20260505193054 82 174 7.0 15.0 0.00 0.00 0.00 50 1015.4
20260505192551 83 171 6.0 14.0 0.00 0.00 0.00 49 1015.5
20260505192048 82 159 8.0 15.0 0.00 0.00 0.00 49 1015.6
20260505191556 83 200 7.0 15.0 0.00 0.00 0.00 49 1015.7
20260505191050 82 195 7.0 13.0 0.00 0.00 0.00 49 1015.7
20260505190548 83 167 6.0 12.0 0.00 0.00 0.00 48 1015.8
20260505190104 83 198 7.0 12.0 0.00 0.00 0.00 49 1015.8
20260505185544 82 186 7.0 12.0 0.00 0.00 0.00 51 1015.9
20260505185046 82 177 6.0 18.0 0.00 0.00 0.00 50 1015.8
20260505184601 82 180 7.0 18.0 0.00 0.00 0.00 52 1016.0
20260505184047 82 188 6.0 14.0 0.00 0.00 0.00 52 1015.9
20260505183545 82 181 6.0 14.0 0.00 0.00 0.00 53 1015.9
20260505183054 82 174 6.0 14.0 0.00 0.00 0.00 51 1015.8
20260505182545 82 167 7.0 14.0 0.00 0.00 0.00 51 1015.8
20260505182052 83 174 6.0 15.0 0.00 0.00 0.00 53 1015.9
20260505181553 82 171 7.0 15.0 0.00 0.00 0.00 54 1016.0
20260505181050 81 169 7.0 14.0 0.00 0.00 0.00 52 1016.1
20260505180544 81 181 6.0 13.0 0.00 0.00 0.00 53 1016.1
20260505180056 80 159 6.0 13.0 0.00 0.00 0.00 53 1016.1
20260505175547 80 200 8.0 13.0 0.00 0.00 0.00 53 1016.1
20260505175047 82 166 5.0 14.0 0.00 0.00 0.00 52 1016.1
20260505174554 82 140 6.0 14.0 0.00 0.00 0.00 54 1016.1
20260505174046 81 171 6.0 15.0 0.00 0.00 0.00 53 1016.2
20260505173546 80 217 7.0 15.0 0.00 0.00 0.00 54 1016.3
20260505173051 79 183 6.0 18.0 0.00 0.00 0.00 53 1016.3
20260505172547 81 159 7.0 18.0 0.00 0.00 0.00 52 1016.3
20260505172045 81 177 7.0 15.0 0.00 0.00 0.00 52 1016.3
20260505171555 80 184 7.0 15.0 0.00 0.00 0.00 53 1016.4
20260505171051 80 170 7.0 14.0 0.00 0.00 0.00 57 1016.4
20260505170545 80 148 3.0 9.0 0.00 0.00 0.00 54 1016.4
20260505170105 79 177 4.0 11.0 0.00 0.00 0.00 54 1016.3
20260505165548 79 156 5.0 11.0 0.00 0.00 0.00 52 1016.4
20260505165045 79 195 5.0 11.0 0.00 0.00 0.00 52 1016.4
20260505164558 79 163 5.0 10.0 0.00 0.00 0.00 52 1016.2
20260505164045 80 157 3.0 11.0 0.00 0.00 0.00 51 1016.3
20260505163550 80 137 4.0 14.0 0.00 0.00 0.00 54 1016.2
20260505163102 79 155 3.0 14.0 0.00 0.00 0.00 50 1016.1
20260505162547 80 155 6.0 13.0 0.00 0.00 0.00 48 1016.0
20260505162045 80 154 5.0 14.0 0.00 0.00 0.00 50 1016.1
20260505161555 80 165 6.0 14.0 0.00 0.00 0.00 54 1016.2
20260505161049 80 167 5.0 11.0 0.00 0.00 0.00 51 1016.1
20260505160547 80 140 4.0 11.0 0.00 0.00 0.00 52 1016.1
20260505153109 77 116 4.0 12.0 0.00 0.00 0.00 52 1016.3
20260505152547 77 163 6.0 12.0 0.00 0.00 0.00 55 1016.2
20260505152048 77 126 4.0 12.0 0.00 0.00 0.00 54 1016.2
20260505151554 76 152 5.0 12.0 0.00 0.00 0.00 53 1016.3
20260505151047 77 117 5.0 10.0 0.00 0.00 0.00 57 1016.3
20260505150549 76 150 3.0 10.0 0.00 0.00 0.00 56 1016.2
20260505150111 76 116 5.0 12.0 0.00 0.00 0.00 56 1016.1
20260505140545 72 126 4.0 11.0 0.00 0.00 0.00 64 1015.9
20260505140107 72 150 4.0 9.0 0.00 0.00 0.00 66 1015.8
20260505124604 63 92 3.0 8.0 0.00 0.00 0.00 79 1015.9
20260505124045 63 71 4.0 8.0 0.00 0.00 0.00 80 1015.9
20260505123544 63 113 2.0 6.0 0.00 0.00 0.00 81 1015.9
20260505123108 62 84 2.0 4.0 0.00 0.00 0.00 81 1015.8
20260505122543 62 117 0.0 6.0 0.00 0.00 0.00 81 1015.8
20260505122043 62 0 1.0 6.0 0.00 0.00 0.00 82 1015.7
20260505121556 61 92 1.0 6.0 0.00 0.00 0.00 82 1015.9
20260505121044 61 94 1.0 7.0 0.00 0.00 0.00 83 1015.9
20260505120544 60 94 2.0 7.0 0.00 0.00 0.00 83 1015.8
20260505120053 60 91 2.0 7.0 0.00 0.00 0.00 84 1015.8
20260505115547 59 57 2.0 7.0 0.00 0.00 0.00 84 1015.7
20260505115042 59 84 2.0 7.0 0.00 0.00 0.00 84 1015.7
20260505114559 59 86 3.0 7.0 0.00 0.00 0.00 85 1015.6
20260505114045 58 82 3.0 7.0 0.00 0.00 0.00 85 1015.5
20260505113541 58 83 3.0 7.0 0.00 0.00 0.00 85 1015.5
20260505113052 58 76 3.0 7.0 0.00 0.00 0.00 85 1015.4
20260505112545 57 81 2.0 9.0 0.00 0.00 0.00 85 1015.4
20260505112042 57 87 3.0 9.0 0.00 0.00 0.00 86 1015.4
20260505111600 57 89 4.0 8.0 0.00 0.00 0.00 86 1015.3
20260505111047 57 94 4.0 8.0 0.00 0.00 0.00 85 1015.2
20260505110546 57 102 3.0 8.0 0.00 0.00 0.00 85 1015.3
20260505102048 58 96 4.0 8.0 0.00 0.00 0.00 86 1015.2
20260505101552 58 83 3.0 9.0 0.00 0.00 0.00 86 1015.3
20260505101048 58 92 3.0 9.0 0.00 0.00 0.00 86 1015.2
20260505100547 57 94 4.0 9.0 0.00 0.00 0.00 87 1015.2
20260505100104 57 77 4.0 9.0 0.00 0.00 0.00 87 1015.1
20260505095550 57 106 3.0 9.0 0.00 0.00 0.00 87 1015.2
20260505095048 56 92 4.0 9.0 0.00 0.00 0.00 87 1015.2
20260505094550 56 98 3.0 7.0 0.00 0.00 0.00 87 1015.2
20260505094048 56 90 2.0 7.0 0.00 0.00 0.00 87 1014.9
20260505093548 56 92 3.0 7.0 0.00 0.00 0.00 87 1014.7
20260505093052 56 94 3.0 7.0 0.00 0.00 0.00 87 1014.4
20260505092547 56 94 3.0 6.0 0.00 0.00 0.00 87 1014.4
20260505092045 56 95 2.0 6.0 0.00 0.00 0.00 87 1014.4
20260505091551 56 100 2.0 6.0 0.00 0.00 0.00 87 1014.4
20260505091045 56 88 2.0 4.0 0.00 0.00 0.00 87 1014.3
20260505090545 56 97 2.0 4.0 0.00 0.00 0.00 87 1014.3
20260505090105 56 98 2.0 4.0 0.00 0.00 0.00 87 1014.4
20260505085548 56 103 2.0 3.0 0.00 0.00 0.00 87 1014.4
20260505085047 56 103 1.0 3.0 0.00 0.00 0.00 87 1014.4
20260505084551 56 104 1.0 3.0 0.00 0.00 0.00 87 1014.3
20260505084046 56 104 1.0 3.0 0.00 0.00 0.00 87 1014.2
20260505083545 56 104 1.0 3.0 0.00 0.00 0.00 87 1014.2
20260505083103 56 104 1.0 4.0 0.00 0.00 0.00 88 1014.1
20260505082545 55 105 2.0 4.0 0.00 0.00 0.00 88 1014.2
20260505082045 55 113 1.0 4.0 0.00 0.00 0.00 88 1014.1
20260505081552 55 113 2.0 4.0 0.00 0.00 0.00 88 1014.1
20260505081048 55 113 2.0 4.0 0.00 0.00 0.00 88 1014.1
20260505080548 55 119 1.0 4.0 0.00 0.00 0.00 88 1014.2
20260505080055 55 0 0.0 0.0 0.00 0.00 0.00 88 1014.1
20260505075545 55 0 0.0 0.0 0.00 0.00 0.00 87 1014.2
20260505075047 55 0 0.0 0.0 0.00 0.00 0.00 87 1014.2
20260505074550 55 0 0.0 0.0 0.00 0.00 0.00 87 1014.2
20260505074049 55 0 0.0 0.0 0.00 0.00 0.00 87 1014.3
20260505073548 55 0 0.0 0.0 0.00 0.00 0.00 87 1014.4
20260505073109 55 0 0.0 0.0 0.00 0.00 0.00 87 1014.2
20260505072546 55 0 0.0 0.0 0.00 0.00 0.00 86 1014.2
20260505072042 55 0 0.0 0.0 0.00 0.00 0.00 86 1014.4
20260505071557 56 0 0.0 0.0 0.00 0.00 0.00 86 1014.3
20260505071045 56 0 0.0 0.0 0.00 0.00 0.00 86 1014.4
20260505070545 56 0 0.0 0.0 0.00 0.00 0.00 86 1014.4
20260505065545 56 0 0.0 0.0 0.00 0.00 0.00 86 1014.4
20260505065046 56 0 0.0 0.0 0.00 0.00 0.00 86 1014.6
20260505064554 56 0 0.0 0.0 0.00 0.00 0.00 86 1014.6
20260505064047 57 0 0.0 0.0 0.00 0.00 0.00 86 1014.7
20260505063546 57 0 0.0 0.0 0.00 0.00 0.00 86 1014.7
20260505063059 56 0 0.0 0.0 0.00 0.00 0.00 86 1014.7
20260505062543 56 0 0.0 0.0 0.00 0.00 0.00 86 1014.9
20260505062043 57 0 0.0 0.0 0.00 0.00 0.00 86 1014.9
20260505061601 57 0 0.0 0.0 0.00 0.00 0.00 86 1015.1
20260505061044 57 0 0.0 0.0 0.00 0.00 0.00 86 1014.9
20260505060545 57 0 0.0 0.0 0.00 0.00 0.00 86 1014.8
20260505060058 57 0 0.0 0.0 0.00 0.00 0.00 86 1015.0
20260505055542 57 0 0.0 0.0 0.00 0.00 0.00 85 1014.9
20260505055045 57 0 0.0 0.0 0.00 0.00 0.00 85 1014.9
20260505054559 57 0 0.0 0.0 0.00 0.00 0.00 85 1014.9
20260505054046 57 0 0.0 0.0 0.00 0.00 0.00 85 1015.1
20260505053548 57 0 0.0 0.0 0.00 0.00 0.00 85 1015.0
20260505053058 57 0 0.0 0.0 0.00 0.00 0.00 85 1015.0
20260505052545 57 0 0.0 0.0 0.00 0.00 0.00 85 1015.0
20260505052045 58 0 0.0 0.0 0.00 0.00 0.00 85 1015.0
20260505051552 58 0 0.0 0.0 0.00 0.00 0.00 85 1015.1
20260505051043 58 0 0.0 0.0 0.00 0.00 0.00 84 1014.9
20260505050542 58 0 0.0 0.0 0.00 0.00 0.00 84 1015.0
20260505050126 58 0 0.0 0.0 0.00 0.00 0.00 84 1015.0
20260505041603 60 0 0.0 0.0 0.00 0.00 0.00 82 1015.6
20260505041046 60 0 0.0 0.0 0.00 0.00 0.00 81 1015.5
20260505040542 60 0 0.0 0.0 0.00 0.00 0.00 82 1015.4
20260505040058 60 0 0.0 0.0 0.00 0.00 0.00 81 1015.4
20260505035548 60 0 0.0 0.0 0.00 0.00 0.00 81 1015.4
20260505035044 60 0 0.0 0.0 0.00 0.00 0.00 81 1015.6
20260505034549 60 0 0.0 0.0 0.00 0.00 0.00 81 1015.6
20260505034045 61 0 0.0 0.0 0.00 0.00 0.00 80 1015.6
20260505033546 61 0 0.0 0.0 0.00 0.00 0.00 80 1015.6
20260505033049 61 0 0.0 0.0 0.00 0.00 0.00 79 1015.5
20260505032545 61 0 0.0 0.0 0.00 0.00 0.00 79 1015.6
20260505032043 62 0 0.0 0.0 0.00 0.00 0.00 79 1015.7
20260505031549 61 0 0.0 0.0 0.00 0.00 0.00 78 1015.9
20260505031045 62 0 0.0 0.0 0.00 0.00 0.00 77 1016.0
20260505030545 62 0 0.0 0.0 0.00 0.00 0.00 77 1015.9
20260505030052 63 0 0.0 0.0 0.00 0.00 0.00 77 1015.7
20260505025544 63 0 0.0 0.0 0.00 0.00 0.00 76 1015.9
20260505025043 63 0 0.0 0.0 0.00 0.00 0.00 77 1015.8
20260505024550 63 0 0.0 0.0 0.00 0.00 0.00 76 1015.8
20260505024044 63 0 0.0 0.0 0.00 0.00 0.00 75 1015.7
20260505023548 64 0 0.0 0.0 0.00 0.00 0.00 74 1015.7
20260505023053 64 0 0.0 0.0 0.00 0.00 0.00 74 1016.0
20260505022544 64 0 0.0 0.0 0.00 0.00 0.00 73 1015.9
20260505022043 65 0 0.0 0.0 0.00 0.00 0.00 73 1015.9
20260505021551 65 0 0.0 0.0 0.00 0.00 0.00 72 1015.9
20260505021044 65 0 0.0 0.0 0.00 0.00 0.00 72 1015.9
20260505020544 65 0 0.0 0.0 0.00 0.00 0.00 71 1016.0
20260505020049 66 0 0.0 4.0 0.00 0.00 0.00 70 1016.0
20260505015544 66 0 0.0 4.0 0.00 0.00 0.00 70 1016.0
20260505015048 66 229 1.0 5.0 0.00 0.00 0.00 69 1016.1
20260505014605 66 0 1.0 5.0 0.00 0.00 0.00 69 1015.9
20260505014049 67 219 1.0 5.0 0.00 0.00 0.00 69 1016.0
20260505013548 67 219 1.0 5.0 0.00 0.00 0.00 68 1015.7
20260505013055 67 229 2.0 5.0 0.00 0.00 0.00 68 1015.7
20260505012548 67 229 1.0 4.0 0.00 0.00 0.00 68 1015.7
20260505012048 67 225 2.0 4.0 0.00 0.00 0.00 68 1016.0
20260505011550 67 191 1.0 4.0 0.00 0.00 0.00 70 1015.9
20260505011048 68 191 1.0 4.0 0.00 0.00 0.00 66 1015.9
20260505010548 68 190 1.0 4.0 0.00 0.00 0.00 65 1015.9
20260505010058 68 190 2.0 4.0 0.00 0.00 0.00 65 1016.0
20260505005548 69 190 2.0 5.0 0.00 0.00 0.00 64 1016.0
20260505005048 69 190 2.0 5.0 0.00 0.00 0.00 63 1015.9
20260505004554 69 192 3.0 10.0 0.00 0.00 0.00 62 1015.9
20260505004046 69 213 3.0 10.0 0.00 0.00 0.00 62 1015.8
20260505003547 69 217 1.0 8.0 0.00 0.00 0.00 61 1015.8
20260505003050 70 198 3.0 8.0 0.00 0.00 0.00 60 1015.9
20260505002551 70 201 2.0 7.0 0.00 0.00 0.00 59 1015.7
20260505002048 70 190 3.0 7.0 0.00 0.00 0.00 59 1015.6
20260505001603 70 234 3.0 8.0 0.00 0.00 0.00 58 1015.6
20260505001048 71 199 2.0 8.0 0.00 0.00 0.00 56 1015.6
20260505000548 71 205 3.0 9.0 0.00 0.00 0.00 55 1015.6
20260505000122 71 205 3.0 9.0 0.00 0.00 0.00 53 1015.5
20260504235548 71 212 5.0 9.0 0.00 0.00 0.00 51 1015.6
20260504235048 72 205 3.0 10.0 0.00 0.00 0.00 50 1015.6
20260504234607 72 221 4.0 10.0 0.00 0.00 0.00 48 1015.5
20260504234048 72 190 4.0 11.0 0.00 0.00 0.00 49 1015.5
20260504233551 73 220 4.0 11.0 0.00 0.00 0.00 46 1015.8
20260504233103 73 188 3.0 11.0 0.00 0.00 0.00 48 1015.6
20260504232548 74 207 5.0 11.0 0.00 0.00 0.00 44 1015.5
20260504232048 73 193 4.0 9.0 0.00 0.00 0.00 44 1015.5
20260504231550 74 227 4.0 10.0 0.00 0.00 0.00 46 1015.5
20260504231047 75 192 5.0 14.0 0.00 0.00 0.00 44 1015.6
20260504230547 75 221 6.0 14.0 0.00 0.00 0.00 43 1015.6
20260504230054 75 207 7.0 14.0 0.00 0.00 0.00 43 1015.5
20260504225547 75 214 6.0 11.0 0.00 0.00 0.00 45 1015.5
20260504225051 76 186 4.0 11.0 0.00 0.00 0.00 46 1015.6
20260504224606 76 225 6.0 11.0 0.00 0.00 0.00 44 1015.7
20260504224048 76 196 6.0 14.0 0.00 0.00 0.00 44 1015.6
20260504223548 76 209 5.0 14.0 0.00 0.00 0.00 45 1015.6
20260504223055 76 196 6.0 13.0 0.00 0.00 0.00 43 1015.6
20260504222549 76 211 6.0 12.0 0.00 0.00 0.00 43 1015.5
20260504222048 76 227 4.0 13.0 0.00 0.00 0.00 44 1015.7
20260504221549 77 194 7.0 13.0 0.00 0.00 0.00 38 1015.8
20260504221045 77 186 5.0 15.0 0.00 0.00 0.00 41 1015.8
20260504220548 77 221 6.0 15.0 0.00 0.00 0.00 41 1015.7
20260504220100 77 200 6.0 11.0 0.00 0.00 0.00 41 1015.7
20260504215547 77 177 6.0 12.0 0.00 0.00 0.00 41 1015.6
20260504215051 77 204 7.0 16.0 0.00 0.00 0.00 39 1015.5
20260504214550 77 230 6.0 16.0 0.00 0.00 0.00 37 1015.5
20260504214045 78 198 7.0 15.0 0.00 0.00 0.00 37 1015.5
20260504213545 78 205 7.0 13.0 0.00 0.00 0.00 39 1015.5
20260504213126 77 169 5.0 12.0 0.00 0.00 0.00 40 1015.5
20260504212546 78 224 7.0 12.0 0.00 0.00 0.00 37 1015.5
20260504212052 78 237 7.0 17.0 0.00 0.00 0.00 38 1015.6
20260504211603 78 184 7.0 17.0 0.00 0.00 0.00 41 1015.6
20260504211048 78 244 7.0 13.0 0.00 0.00 0.00 43 1015.6
20260504210548 78 202 6.0 14.0 0.00 0.00 0.00 38 1015.5
20260504210055 79 204 7.0 16.0 0.00 0.00 0.00 39 1015.6
20260504205549 78 229 7.0 16.0 0.00 0.00 0.00 36 1015.5
20260504205048 78 205 7.0 14.0 0.00 0.00 0.00 38 1015.6
20260504204556 78 229 6.0 14.0 0.00 0.00 0.00 38 1015.6
20260504204050 79 182 7.0 14.0 0.00 0.00 0.00 37 1015.6
20260504203550 79 205 7.0 14.0 0.00 0.00 0.00 36 1015.7
20260504203117 80 201 6.0 14.0 0.00 0.00 0.00 33 1015.7
20260504202545 79 211 6.0 12.0 0.00 0.00 0.00 35 1015.8
20260504202048 79 220 6.0 14.0 0.00 0.00 0.00 34 1015.8
20260504201558 79 178 6.0 14.0 0.00 0.00 0.00 32 1015.9